Year,Month,Day,Hour,Minute,Value (Times are PST for temperature in C)
2015,06,28,00,00,22.30
2015,06,28,00,01,22.30
2015,06,28,00,02,22.30
2015,06,28,00,03,22.30
2015,06,28,00,04,22.30
2015,06,28,00,05,22.30
2015,06,28,00,06,22.20
2015,06,28,00,07,22.20
2015,06,28,00,08,22.20
2015,06,28,00,09,22.20
2015,06,28,00,10,22.20
2015,06,28,00,11,22.20
2015,06,28,00,12,22.20
2015,06,28,00,13,22.20
2015,06,28,00,14,22.20
2015,06,28,00,15,22.20
2015,06,28,00,16,22.20
2015,06,28,00,17,22.20
2015,06,28,00,18,22.20
2015,06,28,00,19,22.20
2015,06,28,00,20,22.10
2015,06,28,00,21,22.10
2015,06,28,00,22,22.00
2015,06,28,00,23,22.00
2015,06,28,00,24,21.90
2015,06,28,00,25,21.90
2015,06,28,00,26,21.80
2015,06,28,00,27,21.80
2015,06,28,00,28,21.80
2015,06,28,00,29,21.70
2015,06,28,00,30,21.70
2015,06,28,00,31,21.70
2015,06,28,00,32,21.60
2015,06,28,00,33,21.60
2015,06,28,00,34,21.60
2015,06,28,00,35,21.60
2015,06,28,00,36,21.60
2015,06,28,00,37,21.50
2015,06,28,00,38,21.50
2015,06,28,00,39,21.40
2015,06,28,00,40,21.40
2015,06,28,00,41,21.40
2015,06,28,00,42,21.40
2015,06,28,00,43,21.30
2015,06,28,00,44,21.30
2015,06,28,00,45,21.20
2015,06,28,00,46,21.20
2015,06,28,00,47,21.10
2015,06,28,00,48,21.10
2015,06,28,00,49,21.00
2015,06,28,00,50,20.90
2015,06,28,00,51,20.90
2015,06,28,00,52,20.80
2015,06,28,00,53,20.80
2015,06,28,00,54,20.70
2015,06,28,00,55,20.70
2015,06,28,00,56,20.70
2015,06,28,00,57,20.70
2015,06,28,00,58,20.70
2015,06,28,00,59,20.60
2015,06,28,01,00,20.60
2015,06,28,01,01,20.60
2015,06,28,01,02,20.60
2015,06,28,01,03,20.60
2015,06,28,01,04,20.50
2015,06,28,01,05,20.50
2015,06,28,01,06,20.50
2015,06,28,01,07,20.50
2015,06,28,01,08,20.50
2015,06,28,01,09,20.40
2015,06,28,01,10,20.40
2015,06,28,01,11,20.40
2015,06,28,01,12,20.40
2015,06,28,01,13,20.40
2015,06,28,01,14,20.40
2015,06,28,01,15,20.40
2015,06,28,01,16,20.40
2015,06,28,01,17,20.40
2015,06,28,01,18,20.50
2015,06,28,01,19,20.50
2015,06,28,01,20,20.50
2015,06,28,01,21,20.50
2015,06,28,01,22,20.60
2015,06,28,01,23,20.60
2015,06,28,01,24,20.60
2015,06,28,01,25,20.60
2015,06,28,01,26,20.70
2015,06,28,01,27,20.70
2015,06,28,01,28,20.70
2015,06,28,01,29,20.70
2015,06,28,01,30,20.70
2015,06,28,01,31,20.70
2015,06,28,01,32,20.70
2015,06,28,01,33,20.70
2015,06,28,01,34,20.70
2015,06,28,01,35,20.70
2015,06,28,01,36,20.60
2015,06,28,01,37,20.60
2015,06,28,01,38,20.60
2015,06,28,01,39,20.60
2015,06,28,01,40,20.60
2015,06,28,01,41,20.60
2015,06,28,01,42,20.60
2015,06,28,01,43,20.50
2015,06,28,01,44,20.50
2015,06,28,01,45,20.50
2015,06,28,01,46,20.50
2015,06,28,01,47,20.40
2015,06,28,01,48,20.40
2015,06,28,01,49,20.40
2015,06,28,01,50,20.40
2015,06,28,01,51,20.40
2015,06,28,01,52,20.40
2015,06,28,01,53,20.40
2015,06,28,01,54,20.40
2015,06,28,01,55,20.40
2015,06,28,01,56,20.40
2015,06,28,01,57,20.40
2015,06,28,01,58,20.40
2015,06,28,01,59,20.40
2015,06,28,02,00,20.40
2015,06,28,02,01,20.40
2015,06,28,02,02,20.40
2015,06,28,02,03,20.40
2015,06,28,02,04,20.40
2015,06,28,02,05,20.40
2015,06,28,02,06,20.40
2015,06,28,02,07,20.40
2015,06,28,02,08,20.40
2015,06,28,02,09,20.40
2015,06,28,02,10,20.40
2015,06,28,02,11,20.40
2015,06,28,02,12,20.40
2015,06,28,02,13,20.40
2015,06,28,02,14,20.40
2015,06,28,02,15,20.40
2015,06,28,02,16,20.40
2015,06,28,02,17,20.40
2015,06,28,02,18,20.40
2015,06,28,02,19,20.30
2015,06,28,02,20,20.30
2015,06,28,02,21,20.30
2015,06,28,02,22,20.30
2015,06,28,02,23,20.30
2015,06,28,02,24,20.30
2015,06,28,02,25,20.30
2015,06,28,02,26,20.30
2015,06,28,02,27,20.30
2015,06,28,02,28,20.30
2015,06,28,02,29,20.30
2015,06,28,02,30,20.30
2015,06,28,02,31,20.30
2015,06,28,02,32,20.30
2015,06,28,02,33,20.30
2015,06,28,02,34,20.30
2015,06,28,02,35,20.30
2015,06,28,02,36,20.30
2015,06,28,02,37,20.30
2015,06,28,02,38,20.30
2015,06,28,02,39,20.30
2015,06,28,02,40,20.30
2015,06,28,02,41,20.30
2015,06,28,02,42,20.20
2015,06,28,02,43,20.20
2015,06,28,02,44,20.20
2015,06,28,02,45,20.20
2015,06,28,02,46,20.10
2015,06,28,02,47,20.00
2015,06,28,02,48,20.00
2015,06,28,02,49,19.90
2015,06,28,02,50,19.90
2015,06,28,02,51,19.80
2015,06,28,02,52,19.80
2015,06,28,02,53,19.70
2015,06,28,02,54,19.60
2015,06,28,02,55,19.50
2015,06,28,02,56,19.40
2015,06,28,02,57,19.30
2015,06,28,02,58,19.30
2015,06,28,02,59,19.20
2015,06,28,03,00,19.10
2015,06,28,03,01,19.00
2015,06,28,03,02,19.00
2015,06,28,03,03,18.90
2015,06,28,03,04,18.80
2015,06,28,03,05,18.80
2015,06,28,03,06,18.70
2015,06,28,03,07,18.70
2015,06,28,03,08,18.70
2015,06,28,03,09,18.60
2015,06,28,03,10,18.60
2015,06,28,03,11,18.60
2015,06,28,03,12,18.60
2015,06,28,03,13,18.60
2015,06,28,03,14,18.60
2015,06,28,03,15,18.60
2015,06,28,03,16,18.60
2015,06,28,03,17,18.60
2015,06,28,03,18,18.60
2015,06,28,03,19,18.60
2015,06,28,03,20,18.60
2015,06,28,03,21,18.60
2015,06,28,03,22,18.60
2015,06,28,03,23,18.60
2015,06,28,03,24,18.60
2015,06,28,03,25,18.70
2015,06,28,03,26,18.70
2015,06,28,03,27,18.70
2015,06,28,03,28,18.70
2015,06,28,03,29,18.70
2015,06,28,03,30,18.70
2015,06,28,03,31,18.70
2015,06,28,03,32,18.70
2015,06,28,03,33,18.70
2015,06,28,03,34,18.70
2015,06,28,03,35,18.70
2015,06,28,03,36,18.70
2015,06,28,03,37,18.70
2015,06,28,03,38,18.70
2015,06,28,03,39,18.70
2015,06,28,03,40,18.70
2015,06,28,03,41,18.70
2015,06,28,03,42,18.70
2015,06,28,03,43,18.60
2015,06,28,03,44,18.60
2015,06,28,03,45,18.60
2015,06,28,03,46,18.60
2015,06,28,03,47,18.60
2015,06,28,03,48,18.60
2015,06,28,03,49,18.60
2015,06,28,03,50,18.60
2015,06,28,03,51,18.60
2015,06,28,03,52,18.60
2015,06,28,03,53,18.60
2015,06,28,03,54,18.60
2015,06,28,03,55,18.60
2015,06,28,03,56,18.60
2015,06,28,03,57,18.60
2015,06,28,03,58,18.60
2015,06,28,03,59,18.60
2015,06,28,04,00,18.60
2015,06,28,04,01,18.60
2015,06,28,04,02,18.60
2015,06,28,04,03,18.60
2015,06,28,04,04,18.60
2015,06,28,04,05,18.60
2015,06,28,04,06,18.60
2015,06,28,04,07,18.60
2015,06,28,04,08,18.50
2015,06,28,04,09,18.50
2015,06,28,04,10,18.50
2015,06,28,04,11,18.40
2015,06,28,04,12,18.40
2015,06,28,04,13,18.30
2015,06,28,04,14,18.30
2015,06,28,04,15,18.30
2015,06,28,04,16,18.30
2015,06,28,04,17,18.30
2015,06,28,04,18,18.20
2015,06,28,04,19,18.20
2015,06,28,04,20,18.20
2015,06,28,04,21,18.20
2015,06,28,04,22,18.20
2015,06,28,04,23,18.20
2015,06,28,04,24,18.20
2015,06,28,04,25,18.20
2015,06,28,04,26,18.20
2015,06,28,04,27,18.20
2015,06,28,04,28,18.20
2015,06,28,04,29,18.20
2015,06,28,04,30,18.20
2015,06,28,04,31,18.20
2015,06,28,04,32,18.20
2015,06,28,04,33,18.20
2015,06,28,04,34,18.20
2015,06,28,04,35,18.20
2015,06,28,04,36,18.20
2015,06,28,04,37,18.20
2015,06,28,04,38,18.20
2015,06,28,04,39,18.20
2015,06,28,04,40,18.20
2015,06,28,04,41,18.20
2015,06,28,04,42,18.20
2015,06,28,04,43,18.20
2015,06,28,04,44,18.20
2015,06,28,04,45,18.20
2015,06,28,04,46,18.20
2015,06,28,04,47,18.20
2015,06,28,04,48,18.20
2015,06,28,04,49,18.20
2015,06,28,04,50,18.20
2015,06,28,04,51,18.20
2015,06,28,04,52,18.20
2015,06,28,04,53,18.20
2015,06,28,04,54,18.20
2015,06,28,04,55,18.20
2015,06,28,04,56,18.20
2015,06,28,04,57,18.20
2015,06,28,04,58,18.20
2015,06,28,04,59,18.20
2015,06,28,05,00,18.20
2015,06,28,05,01,18.20
2015,06,28,05,02,18.20
2015,06,28,05,03,18.20
2015,06,28,05,04,18.20
2015,06,28,05,05,18.20
2015,06,28,05,06,18.20
2015,06,28,05,07,18.20
2015,06,28,05,08,18.30
2015,06,28,05,09,18.30
2015,06,28,05,10,18.30
2015,06,28,05,11,18.30
2015,06,28,05,12,18.30
2015,06,28,05,13,18.20
2015,06,28,05,14,18.30
2015,06,28,05,15,18.20
2015,06,28,05,16,18.30
2015,06,28,05,17,18.30
2015,06,28,05,18,18.30
2015,06,28,05,19,18.30
2015,06,28,05,20,18.30
2015,06,28,05,21,18.30
2015,06,28,05,22,18.30
2015,06,28,05,23,18.30
2015,06,28,05,24,18.30
2015,06,28,05,25,18.30
2015,06,28,05,26,18.30
2015,06,28,05,27,18.30
2015,06,28,05,28,18.30
2015,06,28,05,29,18.20
2015,06,28,05,30,18.20
2015,06,28,05,31,18.20
2015,06,28,05,32,18.20
2015,06,28,05,33,18.20
2015,06,28,05,34,18.20
2015,06,28,05,35,18.20
2015,06,28,05,36,18.20
2015,06,28,05,37,18.20
2015,06,28,05,38,18.20
2015,06,28,05,39,18.20
2015,06,28,05,40,18.20
2015,06,28,05,41,18.20
2015,06,28,05,42,18.10
2015,06,28,05,43,18.10
2015,06,28,05,44,18.10
2015,06,28,05,45,18.10
2015,06,28,05,46,18.10
2015,06,28,05,47,18.10
2015,06,28,05,48,18.10
2015,06,28,05,49,18.10
2015,06,28,05,50,18.10
2015,06,28,05,51,18.10
2015,06,28,05,52,18.10
2015,06,28,05,53,18.10
2015,06,28,05,54,18.20
2015,06,28,05,55,18.20
2015,06,28,05,56,18.20
2015,06,28,05,57,18.20
2015,06,28,05,58,18.30
2015,06,28,05,59,18.30
2015,06,28,06,00,18.30
2015,06,28,06,01,18.40
2015,06,28,06,02,18.40
2015,06,28,06,03,18.50
2015,06,28,06,04,18.50
2015,06,28,06,05,18.60
2015,06,28,06,06,18.60
2015,06,28,06,07,18.70
2015,06,28,06,08,18.70
2015,06,28,06,09,18.70
2015,06,28,06,10,18.70
2015,06,28,06,11,18.70
2015,06,28,06,12,18.70
2015,06,28,06,13,18.80
2015,06,28,06,14,18.80
2015,06,28,06,15,18.90
2015,06,28,06,16,18.90
2015,06,28,06,17,19.00
2015,06,28,06,18,19.00
2015,06,28,06,19,19.10
2015,06,28,06,20,19.10
2015,06,28,06,21,19.20
2015,06,28,06,22,19.20
2015,06,28,06,23,19.30
2015,06,28,06,24,19.40
2015,06,28,06,25,19.50
2015,06,28,06,26,19.50
2015,06,28,06,27,19.60
2015,06,28,06,28,19.70
2015,06,28,06,29,19.70
2015,06,28,06,30,19.70
2015,06,28,06,31,19.80
2015,06,28,06,32,19.80
2015,06,28,06,33,19.80
2015,06,28,06,34,19.90
2015,06,28,06,35,19.90
2015,06,28,06,36,19.90
2015,06,28,06,37,19.90
2015,06,28,06,38,20.00
2015,06,28,06,39,20.00
2015,06,28,06,40,20.00
2015,06,28,06,41,20.00
2015,06,28,06,42,19.90
2015,06,28,06,43,19.70
2015,06,28,06,44,19.50
2015,06,28,06,45,19.40
2015,06,28,06,46,19.20
2015,06,28,06,47,19.10
2015,06,28,06,48,18.90
2015,06,28,06,49,18.80
2015,06,28,06,50,18.70
2015,06,28,06,51,18.60
2015,06,28,06,52,18.50
2015,06,28,06,53,18.40
2015,06,28,06,54,18.30
2015,06,28,06,55,18.20
2015,06,28,06,56,18.00
2015,06,28,06,57,17.90
2015,06,28,06,58,17.70
2015,06,28,06,59,17.60
2015,06,28,07,00,17.60
2015,06,28,07,01,17.50
2015,06,28,07,02,17.40
2015,06,28,07,03,17.40
2015,06,28,07,04,17.30
2015,06,28,07,05,17.30
2015,06,28,07,06,17.30
2015,06,28,07,07,17.30
2015,06,28,07,08,17.30
2015,06,28,07,09,17.30
2015,06,28,07,10,17.30
2015,06,28,07,11,17.40
2015,06,28,07,12,17.40
2015,06,28,07,13,17.40
2015,06,28,07,14,17.50
2015,06,28,07,15,17.60
2015,06,28,07,16,17.70
2015,06,28,07,17,17.70
2015,06,28,07,18,17.80
2015,06,28,07,19,17.90
2015,06,28,07,20,17.90
2015,06,28,07,21,18.00
2015,06,28,07,22,18.10
2015,06,28,07,23,18.10
2015,06,28,07,24,18.20
2015,06,28,07,25,18.30
2015,06,28,07,26,18.40
2015,06,28,07,27,18.50
2015,06,28,07,28,18.60
2015,06,28,07,29,18.80
2015,06,28,07,30,18.80
2015,06,28,07,31,18.90
2015,06,28,07,32,19.00
2015,06,28,07,33,19.10
2015,06,28,07,34,19.20
2015,06,28,07,35,19.30
2015,06,28,07,36,19.40
2015,06,28,07,37,19.50
2015,06,28,07,38,19.60
2015,06,28,07,39,19.80
2015,06,28,07,40,19.80
2015,06,28,07,41,19.90
2015,06,28,07,42,20.00
2015,06,28,07,43,20.10
2015,06,28,07,44,20.20
2015,06,28,07,45,20.30
2015,06,28,07,46,20.40
2015,06,28,07,47,20.50
2015,06,28,07,48,20.50
2015,06,28,07,49,20.60
2015,06,28,07,50,20.60
2015,06,28,07,51,20.60
2015,06,28,07,52,20.60
2015,06,28,07,53,20.60
2015,06,28,07,54,20.60
2015,06,28,07,55,20.60
2015,06,28,07,56,20.60
2015,06,28,07,57,20.60
2015,06,28,07,58,20.60
2015,06,28,07,59,20.60
2015,06,28,08,00,20.70
2015,06,28,08,01,20.70
2015,06,28,08,02,20.80
2015,06,28,08,03,20.80
2015,06,28,08,04,20.90
2015,06,28,08,05,20.90
2015,06,28,08,06,21.00
2015,06,28,08,07,21.10
2015,06,28,08,08,21.10
2015,06,28,08,09,21.20
2015,06,28,08,10,21.30
2015,06,28,08,11,21.40
2015,06,28,08,12,21.50
2015,06,28,08,13,21.60
2015,06,28,08,14,21.60
2015,06,28,08,15,21.70
2015,06,28,08,16,21.70
2015,06,28,08,17,21.80
2015,06,28,08,18,21.80
2015,06,28,08,19,21.90
2015,06,28,08,20,22.00
2015,06,28,08,21,22.00
2015,06,28,08,22,22.10
2015,06,28,08,23,22.20
2015,06,28,08,24,22.30
2015,06,28,08,25,22.40
2015,06,28,08,26,22.50
2015,06,28,08,27,22.60
2015,06,28,08,28,22.70
2015,06,28,08,29,22.80
2015,06,28,08,30,23.00
2015,06,28,08,31,23.10
2015,06,28,08,32,23.20
2015,06,28,08,33,23.30
2015,06,28,08,34,23.30
2015,06,28,08,35,23.40
2015,06,28,08,36,23.50
2015,06,28,08,37,23.60
2015,06,28,08,38,23.70
2015,06,28,08,39,23.80
2015,06,28,08,40,23.90
2015,06,28,08,41,23.90
2015,06,28,08,42,24.00
2015,06,28,08,43,24.10
2015,06,28,08,44,24.10
2015,06,28,08,45,24.20
2015,06,28,08,46,24.30
2015,06,28,08,47,24.30
2015,06,28,08,48,24.40
2015,06,28,08,49,24.50
2015,06,28,08,50,24.60
2015,06,28,08,51,24.60
2015,06,28,08,52,24.70
2015,06,28,08,53,24.80
2015,06,28,08,54,24.80
2015,06,28,08,55,24.90
2015,06,28,08,56,25.00
2015,06,28,08,57,25.10
2015,06,28,08,58,25.20
2015,06,28,08,59,25.20
2015,06,28,09,00,25.30
2015,06,28,09,01,25.40
2015,06,28,09,02,25.40
2015,06,28,09,03,25.50
2015,06,28,09,04,25.60
2015,06,28,09,05,25.70
2015,06,28,09,06,25.70
2015,06,28,09,07,25.70
2015,06,28,09,08,25.70
2015,06,28,09,09,25.70
2015,06,28,09,10,25.70
2015,06,28,09,11,25.80
2015,06,28,09,12,25.80
2015,06,28,09,13,25.80
2015,06,28,09,14,25.80
2015,06,28,09,15,25.80
2015,06,28,09,16,25.80
2015,06,28,09,17,25.80
2015,06,28,09,18,25.80
2015,06,28,09,19,25.80
2015,06,28,09,20,25.80
2015,06,28,09,21,25.80
2015,06,28,09,22,25.80
2015,06,28,09,23,25.70
2015,06,28,09,24,25.70
2015,06,28,09,25,25.70
2015,06,28,09,26,25.70
2015,06,28,09,27,25.70
2015,06,28,09,28,25.70
2015,06,28,09,29,25.70
2015,06,28,09,30,25.70
2015,06,28,09,31,25.80
2015,06,28,09,32,25.80
2015,06,28,09,33,25.80
2015,06,28,09,34,25.80
2015,06,28,09,35,25.80
2015,06,28,09,36,25.80
2015,06,28,09,37,25.80
2015,06,28,09,38,25.80
2015,06,28,09,39,25.80
2015,06,28,09,40,25.80
2015,06,28,09,41,25.80
2015,06,28,09,42,25.90
2015,06,28,09,43,25.90
2015,06,28,09,44,25.90
2015,06,28,09,45,25.90
2015,06,28,09,46,26.00
2015,06,28,09,47,26.00
2015,06,28,09,48,26.10
2015,06,28,09,49,26.10
2015,06,28,09,50,26.10
2015,06,28,09,51,26.10
2015,06,28,09,52,26.20
2015,06,28,09,53,26.20
2015,06,28,09,54,26.20
2015,06,28,09,55,26.30
2015,06,28,09,56,26.30
2015,06,28,09,57,26.30
2015,06,28,09,58,26.40
2015,06,28,09,59,26.40
2015,06,28,10,00,26.40
2015,06,28,10,01,26.50
2015,06,28,10,02,26.50
2015,06,28,10,03,26.40
2015,06,28,10,04,26.40
2015,06,28,10,05,26.40
2015,06,28,10,06,26.50
2015,06,28,10,07,26.50
2015,06,28,10,08,26.50
2015,06,28,10,09,26.60
2015,06,28,10,10,26.50
2015,06,28,10,11,26.50
2015,06,28,10,12,26.60
2015,06,28,10,13,26.60
2015,06,28,10,14,26.60
2015,06,28,10,15,26.60
2015,06,28,10,16,26.60
2015,06,28,10,17,26.60
2015,06,28,10,18,26.60
2015,06,28,10,19,26.50
2015,06,28,10,20,26.10
2015,06,28,10,21,25.50
2015,06,28,10,22,24.90
2015,06,28,10,23,24.50
2015,06,28,10,24,24.10
2015,06,28,10,25,23.90
2015,06,28,10,26,23.60
2015,06,28,10,27,23.40
2015,06,28,10,28,23.30
2015,06,28,10,29,23.10
2015,06,28,10,30,22.90
2015,06,28,10,31,22.70
2015,06,28,10,32,22.50
2015,06,28,10,33,22.40
2015,06,28,10,34,22.20
2015,06,28,10,35,22.10
2015,06,28,10,36,22.10
2015,06,28,10,37,22.10
2015,06,28,10,38,22.10
2015,06,28,10,39,22.00
2015,06,28,10,40,21.90
2015,06,28,10,41,21.80
2015,06,28,10,42,21.70
2015,06,28,10,43,21.60
2015,06,28,10,44,21.50
2015,06,28,10,45,21.40
2015,06,28,10,46,21.40
2015,06,28,10,47,21.30
2015,06,28,10,48,21.30
2015,06,28,10,49,21.20
2015,06,28,10,50,21.20
2015,06,28,10,51,21.20
2015,06,28,10,52,21.20
2015,06,28,10,53,21.20
2015,06,28,10,54,21.10
2015,06,28,10,55,21.10
2015,06,28,10,56,21.10
2015,06,28,10,57,21.10
2015,06,28,10,58,21.00
2015,06,28,10,59,21.00
2015,06,28,11,00,21.00
2015,06,28,11,01,21.00
2015,06,28,11,02,21.00
2015,06,28,11,03,21.00
2015,06,28,11,04,21.00
2015,06,28,11,05,21.00
2015,06,28,11,06,21.00
2015,06,28,11,07,21.00
2015,06,28,11,08,20.90
2015,06,28,11,09,20.90
2015,06,28,11,10,20.90
2015,06,28,11,11,20.90
2015,06,28,11,12,20.80
2015,06,28,11,13,20.80
2015,06,28,11,14,20.70
2015,06,28,11,15,20.70
2015,06,28,11,16,20.70
2015,06,28,11,17,20.70
2015,06,28,11,18,20.70
2015,06,28,11,19,20.70
2015,06,28,11,20,20.70
2015,06,28,11,21,20.70
2015,06,28,11,22,20.80
2015,06,28,11,23,20.80
2015,06,28,11,24,20.80
2015,06,28,11,25,20.90
2015,06,28,11,26,20.90
2015,06,28,11,27,21.00
2015,06,28,11,28,21.00
2015,06,28,11,29,21.10
2015,06,28,11,30,21.10
2015,06,28,11,31,21.20
2015,06,28,11,32,21.30
2015,06,28,11,33,21.30
2015,06,28,11,34,21.40
2015,06,28,11,35,21.50
2015,06,28,11,36,21.50
2015,06,28,11,37,21.60
2015,06,28,11,38,21.70
2015,06,28,11,39,21.70
2015,06,28,11,40,21.80
2015,06,28,11,41,21.80
2015,06,28,11,42,21.80
2015,06,28,11,43,21.80
2015,06,28,11,44,21.80
2015,06,28,11,45,21.90
2015,06,28,11,46,21.90
2015,06,28,11,47,21.90
2015,06,28,11,48,22.00
2015,06,28,11,49,22.00
2015,06,28,11,50,22.00
2015,06,28,11,51,22.10
2015,06,28,11,52,22.10
2015,06,28,11,53,22.10
2015,06,28,11,54,22.10
2015,06,28,11,55,22.10
2015,06,28,11,56,22.20
2015,06,28,11,57,22.20
2015,06,28,11,58,22.20
2015,06,28,11,59,22.20
2015,06,28,12,00,22.20
2015,06,28,12,01,22.30
2015,06,28,12,02,22.30
2015,06,28,12,03,22.40
2015,06,28,12,04,22.40
2015,06,28,12,05,22.40
2015,06,28,12,06,22.50
2015,06,28,12,07,22.50
2015,06,28,12,08,22.60
2015,06,28,12,09,22.60
2015,06,28,12,10,22.70
2015,06,28,12,11,22.70
2015,06,28,12,12,22.70
2015,06,28,12,13,22.80
2015,06,28,12,14,22.90
2015,06,28,12,15,23.00
2015,06,28,12,16,23.00
2015,06,28,12,17,23.10
2015,06,28,12,18,23.20
2015,06,28,12,19,23.30
2015,06,28,12,20,23.40
2015,06,28,12,21,23.40
2015,06,28,12,22,23.50
2015,06,28,12,23,23.50
2015,06,28,12,24,23.60
2015,06,28,12,25,23.60
2015,06,28,12,26,23.70
2015,06,28,12,27,23.70
2015,06,28,12,28,23.80
2015,06,28,12,29,23.80
2015,06,28,12,30,23.80
2015,06,28,12,31,23.90
2015,06,28,12,32,23.90
2015,06,28,12,33,23.90
2015,06,28,12,34,24.00
2015,06,28,12,35,24.00
2015,06,28,12,36,24.00
2015,06,28,12,37,24.10
2015,06,28,12,38,24.10
2015,06,28,12,39,24.10
2015,06,28,12,40,24.00
2015,06,28,12,41,24.00
2015,06,28,12,42,23.90
2015,06,28,12,43,23.90
2015,06,28,12,44,23.90
2015,06,28,12,45,23.80
2015,06,28,12,46,23.80
2015,06,28,12,47,23.80
2015,06,28,12,48,23.80
2015,06,28,12,49,23.90
2015,06,28,12,50,23.90
2015,06,28,12,51,23.90
2015,06,28,12,52,23.90
2015,06,28,12,53,23.80
2015,06,28,12,54,23.80
2015,06,28,12,55,23.80
2015,06,28,12,56,23.80
2015,06,28,12,57,23.70
2015,06,28,12,58,23.70
2015,06,28,12,59,23.70
2015,06,28,13,00,23.70
2015,06,28,13,01,23.70
2015,06,28,13,02,23.60
2015,06,28,13,03,23.50
2015,06,28,13,04,23.50
2015,06,28,13,05,23.40
2015,06,28,13,06,23.40
2015,06,28,13,07,23.30
2015,06,28,13,08,23.20
2015,06,28,13,09,23.20
2015,06,28,13,10,23.10
2015,06,28,13,11,23.00
2015,06,28,13,12,23.00
2015,06,28,13,13,22.90
2015,06,28,13,14,22.90
2015,06,28,13,15,22.80
2015,06,28,13,16,22.80
2015,06,28,13,17,22.80
2015,06,28,13,18,22.80
2015,06,28,13,19,22.80
2015,06,28,13,20,22.80
2015,06,28,13,21,22.80
2015,06,28,13,22,22.80
2015,06,28,13,23,22.80
2015,06,28,13,24,22.80
2015,06,28,13,25,22.70
2015,06,28,13,26,22.70
2015,06,28,13,27,22.70
2015,06,28,13,28,22.70
2015,06,28,13,29,22.70
2015,06,28,13,30,22.70
2015,06,28,13,31,22.80
2015,06,28,13,32,22.80
2015,06,28,13,33,22.80
2015,06,28,13,34,22.80
2015,06,28,13,35,22.80
2015,06,28,13,36,22.90
2015,06,28,13,37,22.90
2015,06,28,13,38,23.00
2015,06,28,13,39,23.00
2015,06,28,13,40,23.10
2015,06,28,13,41,23.10
2015,06,28,13,42,23.20
2015,06,28,13,43,23.30
2015,06,28,13,44,23.30
2015,06,28,13,45,23.40
2015,06,28,13,46,23.40
2015,06,28,13,47,23.50
2015,06,28,13,48,23.60
2015,06,28,13,49,23.70
2015,06,28,13,50,23.70
2015,06,28,13,51,23.80
2015,06,28,13,52,23.80
2015,06,28,13,53,23.90
2015,06,28,13,54,23.90
2015,06,28,13,55,24.00
2015,06,28,13,56,24.10
2015,06,28,13,57,24.10
2015,06,28,13,58,24.20
2015,06,28,13,59,24.20
2015,06,28,14,00,24.20
2015,06,28,14,01,24.20
2015,06,28,14,02,24.30
2015,06,28,14,03,24.30
2015,06,28,14,04,24.40
2015,06,28,14,05,24.40
2015,06,28,14,06,24.50
2015,06,28,14,07,24.50
2015,06,28,14,08,24.60
2015,06,28,14,09,24.70
2015,06,28,14,10,24.70
2015,06,28,14,11,24.80
2015,06,28,14,12,24.90
2015,06,28,14,13,24.90
2015,06,28,14,14,25.00
2015,06,28,14,15,25.00
2015,06,28,14,16,25.10
2015,06,28,14,17,25.10
2015,06,28,14,18,25.10
2015,06,28,14,19,25.20
2015,06,28,14,20,25.20
2015,06,28,14,21,25.30
2015,06,28,14,22,25.30
2015,06,28,14,23,25.30
2015,06,28,14,24,25.40
2015,06,28,14,25,25.40
2015,06,28,14,26,25.30
2015,06,28,14,27,25.30
2015,06,28,14,28,25.30
2015,06,28,14,29,25.30
2015,06,28,14,30,25.20
2015,06,28,14,31,25.20
2015,06,28,14,32,25.10
2015,06,28,14,33,25.10
2015,06,28,14,34,25.10
2015,06,28,14,35,25.10
2015,06,28,14,36,25.10
2015,06,28,14,37,25.10
2015,06,28,14,38,25.10
2015,06,28,14,39,25.10
2015,06,28,14,40,25.10
2015,06,28,14,41,25.10
2015,06,28,14,42,25.10
2015,06,28,14,43,25.10
2015,06,28,14,44,25.00
2015,06,28,14,45,25.00
2015,06,28,14,46,25.00
2015,06,28,14,47,25.00
2015,06,28,14,48,24.90
2015,06,28,14,49,24.90
2015,06,28,14,50,24.90
2015,06,28,14,51,24.90
2015,06,28,14,52,25.00
2015,06,28,14,53,25.00
2015,06,28,14,54,25.10
2015,06,28,14,55,25.10
2015,06,28,14,56,25.10
2015,06,28,14,57,25.00
2015,06,28,14,58,24.90
2015,06,28,14,59,24.80
2015,06,28,15,00,24.70
2015,06,28,15,01,24.60
2015,06,28,15,02,24.40
2015,06,28,15,03,24.20
2015,06,28,15,04,23.90
2015,06,28,15,05,23.40
2015,06,28,15,06,22.80
2015,06,28,15,07,22.20
2015,06,28,15,08,21.80
2015,06,28,15,09,21.40
2015,06,28,15,10,21.10
2015,06,28,15,11,20.80
2015,06,28,15,12,20.60
2015,06,28,15,13,20.30
2015,06,28,15,14,20.10
2015,06,28,15,15,19.90
2015,06,28,15,16,19.80
2015,06,28,15,17,19.70
2015,06,28,15,18,19.50
2015,06,28,15,19,19.30
2015,06,28,15,20,19.20
2015,06,28,15,21,19.10
2015,06,28,15,22,19.00
2015,06,28,15,23,18.90
2015,06,28,15,24,18.80
2015,06,28,15,25,18.70
2015,06,28,15,26,18.60
2015,06,28,15,27,18.60
2015,06,28,15,28,18.50
2015,06,28,15,29,18.50
2015,06,28,15,30,18.50
2015,06,28,15,31,18.50
2015,06,28,15,32,18.50
2015,06,28,15,33,18.50
2015,06,28,15,34,18.50
2015,06,28,15,35,18.60
2015,06,28,15,36,18.60
2015,06,28,15,37,18.70
2015,06,28,15,38,18.80
2015,06,28,15,39,18.90
2015,06,28,15,40,19.10
2015,06,28,15,41,19.20
2015,06,28,15,42,19.30
2015,06,28,15,43,19.40
2015,06,28,15,44,19.50
2015,06,28,15,45,19.60
2015,06,28,15,46,19.70
2015,06,28,15,47,19.70
2015,06,28,15,48,19.80
2015,06,28,15,49,19.80
2015,06,28,15,50,19.90
2015,06,28,15,51,19.90
2015,06,28,15,52,19.90
2015,06,28,15,53,19.90
2015,06,28,15,54,19.90
2015,06,28,15,55,19.90
2015,06,28,15,56,19.90
2015,06,28,15,57,19.80
2015,06,28,15,58,19.80
2015,06,28,15,59,19.80
2015,06,28,16,00,19.80
2015,06,28,16,01,19.80
2015,06,28,16,02,19.80
2015,06,28,16,03,19.80
2015,06,28,16,04,19.80
2015,06,28,16,05,19.80
2015,06,28,16,06,19.80
2015,06,28,16,07,19.90
2015,06,28,16,08,19.90
2015,06,28,16,09,19.90
2015,06,28,16,10,20.00
2015,06,28,16,11,20.00
2015,06,28,16,12,20.10
2015,06,28,16,13,20.10
2015,06,28,16,14,20.10
2015,06,28,16,15,20.20
2015,06,28,16,16,20.20
2015,06,28,16,17,20.20
2015,06,28,16,18,20.30
2015,06,28,16,19,20.30
2015,06,28,16,20,20.40
2015,06,28,16,21,20.40
2015,06,28,16,22,20.40
2015,06,28,16,23,20.50
2015,06,28,16,24,20.50
2015,06,28,16,25,20.60
2015,06,28,16,26,20.60
2015,06,28,16,27,20.70
2015,06,28,16,28,20.70
2015,06,28,16,29,20.80
2015,06,28,16,30,20.80
2015,06,28,16,31,20.80
2015,06,28,16,32,20.90
2015,06,28,16,33,20.90
2015,06,28,16,34,20.90
2015,06,28,16,35,21.00
2015,06,28,16,36,21.00
2015,06,28,16,37,21.10
2015,06,28,16,38,21.20
2015,06,28,16,39,21.20
2015,06,28,16,40,21.30
2015,06,28,16,41,21.30
2015,06,28,16,42,21.30
2015,06,28,16,43,21.30
2015,06,28,16,44,21.40
2015,06,28,16,45,21.40
2015,06,28,16,46,21.40
2015,06,28,16,47,21.40
2015,06,28,16,48,21.40
2015,06,28,16,49,21.40
2015,06,28,16,50,21.40
2015,06,28,16,51,21.40
2015,06,28,16,52,21.40
2015,06,28,16,53,21.40
2015,06,28,16,54,21.40
2015,06,28,16,55,21.40
2015,06,28,16,56,21.40
2015,06,28,16,57,21.40
2015,06,28,16,58,21.40
2015,06,28,16,59,21.40
2015,06,28,17,00,21.40
2015,06,28,17,01,21.40
2015,06,28,17,02,21.40
2015,06,28,17,03,21.40
2015,06,28,17,04,21.40
2015,06,28,17,05,21.40
2015,06,28,17,06,21.40
2015,06,28,17,07,21.40
2015,06,28,17,08,21.40
2015,06,28,17,09,21.40
2015,06,28,17,10,21.40
2015,06,28,17,11,21.50
2015,06,28,17,12,21.50
2015,06,28,17,13,21.50
2015,06,28,17,14,21.50
2015,06,28,17,15,21.50
2015,06,28,17,16,21.50
2015,06,28,17,17,21.50
2015,06,28,17,18,21.50
2015,06,28,17,19,21.60